SCP
0 0 -0 -0 0 0 0 0 -0 -0 -0 -0 -0 -0 -0 -0 -0 0 0 0 0 0 0 0 0 0 0 0 0 0 0 0 0 0 0 0 0 0 0 0 0 0 0 0 0 0 0 0 0 0 0 0 0 0
0 0 -0 -0 -0 0 0 0 -0 -0 -0 -0 -0 -0 -0 -0 -0 0 0 0 0 0 0 0 0 0 0 0 0 0 0 0 0 0 0 0 0 0 0 0 0 0 0 0 0 0 0 0 0 0 0 0 0 0
0 0 0 -0 -0 0 0 0 0 -0 -0 -0 -0 -0 -0 -0 -0 0 0 0 0 0 0 0 0 0 0 0 0 0 0 0 0 0 0 0 0 0 0 0 0 0 0 0 0 0 0 0 0 0 0 0 0 0
0 0 0 0 0 0 0 -0 0 0 -0 -0 -0 -0 -0 0 0 -0 -0 0 0 0 0 0 0 0 0 0 0 0 0 0 0 0 0 0 0 0 0 0 0 0 0 0 0 0 0 0 0 0 0 0 0 0
0 0 0 0 0 0 -0 -0 0 0 0 -0 -0 -0 0 0 0 0 -0 0 0 0 0 0 0 0 0 0 0 0 0 0 0 0 0 0 0 0 0 0 0 0 0 0 0 0 0 0 0 0 0 0 0 0
0 0 0 0 0 -0 -0 0 0 0 0 0 -0 -0 -0 0 0 0 0 0 0 0 0 0 0 0 0 0 0 0 0 0 0 0 0 0 0 0 0 0 0 0 0 0 0 0 0 0 0 0 0 0 0 0
0 0 0 0 -0 -0 -0 -0 0 0 0 0 0 -0 -0 -0 0 0 0 0 0 0 0 0 0 0 0 0 0 0 0 0 0 0 0 0 0 0 0 0 0 0 0 0 0 0 0 0 0 0 0 0 0 0
0 0 0 0 0 0 -0 -0 0 0 0 -0 0 -0 0 0 0 0 0 0 0 0 0 0 0 0 0 0 0 0 0 0 0 0 0 0 0 0 0 0 0 0 0 0 0 0 0 0 0 0 0 0 0 0
0 0 0 0 0 -0 -0 -0 -0 -0 -0 -0 -0 -0 0 -0 0 0 -0 0 0 0 0 0 0 0 0 0 0 0 0 0 0 0 0 0 0 0 0 0 0 0 0 0 0 0 0 0 0 0 0 0 0 0
0 0 0 0 -0 -0 -0 -0 0 -0 -0 -0 -0 -0 0 0 -0 0 -0 0 0 0 0 0 0 0 0 0 0 0 0 0 0 0 0 0 0 0 0 0 0 0 0 0 0 0 0 0 0 0 0 0 0 0
0 0 0 0 0 -0 -0 -0 0 0 -0 0 -0 0 0 0 0 -0 -0 0 0 0 0 0 0 0 0 0 0 0 0 0 0 0 0 0 0 0 0 0 0 0 0 0 0 0 0 0 0 0 0 0 0 0
0 0 0 0 0 0 -0 -0 -0 0 0 0 0 0 -0 -0 -0 0 -0 -0 0 0 0 0 0 0 0 0 0 0 0 0 0 0 0 0 0 0 0 0 0 0 0 0 0 0 0 0 0 0 0 0 0 0
0 0 0 0 0 0 0 0 0 -0 0 0 0 0 -0 -0 0 0 0 0 0 0 0 0 0 0 0 0 0 0 0 0 0 0 0 0 0 0 0 0 0 0 0 0 0 0 0 0 0 0 0 0 0 0
0 0 0 0 0 0 0 -0 0 0 0 0 0 0 0 0 0 0 0 0 0 0 0 0 0 0 0 0 0 0 0 0 0 0 0 0 0 0 0 0 0 0 0 0 0 0 0 0 0 0 0 0 0 0
0 0 0 0 0 0 0 0 0 0 0 0 0 0 0 0 0 0 0 0 -0 -0 -0 0 0 0 0 0 0 0 0 0 -0 0 0 0 0 0 0 0 0 0 0 0 0 0 0 0 0 0 0 0 0 0
0 0 0 0 0 0 0 0 0 0 0 0 0 0 0 0 0 0 0 0 0 -0 -0 -0 -0 0 0 0 0 0 0 0 0 0 0 0 0 0 0 0 0 0 0 0 0 0 0 0 0 0 0 0 0 0
0 0 0 0 0 0 0 0 0 0 0 0 0 0 0 0 0 0 0 0 -0 -0 -0 -0 0 0 0 0 0 0 0 0 0 0 0 0 0 0 0 0 0 0 0 0 0 0 0 0 0 0 0 0 0 0
0 0 0 0 0 0 0 0 0 0 0 0 0 0 0 0 0 0 0 0 0 0 0 0 0 0 0 0 0 0 0 0 0 0 0 0 0 0 0 0 0 0 0 0 0 0 0 0 0 0 0 0 0 0
0 0 0 0 0 0 0 0 0 0 0 0 0 0 0 0 0 0 0 0 0 0 0 0 0 0 0 0 0 0 0 0 0 0 0 0 0 0 0 0 0 0 0 0 0 0 0 0 0 0 0 0 0 0
0 0 0 0 0 0 0 0 0 0 0 0 0 0 0 0 0 0 0 0 0 0 0 0 0 0 0 -0 -0 -0 0 -0 0 0 0 0 0 0 0 0 0 0 0 0 0 0 0 0 0 0 0 0 0 0
0 0 0 0 0 0 0 0 0 0 0 0 0 0 0 0 0 0 0 0 0 0 0 0 0 0 0 0 0 0 0 0 0 0 0 0 0 0 0 0 0 0 0 0 0 0 0 0 0 0 0 0 0 0
0 0 0 0 0 0 0 0 0 0 0 0 0 0 0 0 0 0 0 0 0 0 0 0 0 0 0 0 0 0 0 0 0 0 0 0 0 -0 -0 0 0 0 0 0 0 0 0 0 0 0 0 0 0 0
0 0 0 0 0 0 0 0 0 0 0 0 0 0 0 0 0 0 0 0 0 0 0 0 0 0 0 0 0 0 0 0 0 0 0 0 0 0 0 0 0 0 0 0 0 0 0 0 0 0 0 0 0 0
0 0 0 0 0 0 0 0 0 0 0 0 0 0 0 0 0 0 0 0 0 0 0 0 0 0 0 0 0 0 0 0 0 0 0 0 0 0 0 0 0 0 0 0 0 0 0 0 0 0 0 0 0 0
0 0 0 0 0 0 0 0 0 0 0 0 0 0 0 0 0 0 0 0 0 0 0 0 0 0 0 0 0 0 0 0 0 0 0 0 0 0 0 0 0 0 0 0 0 0 0 0 0 0 0 0 0 0
0 0 0 0 0 0 0 0 0 0 0 0 0 0 0 0 0 0 0 0 0 0 0 0 0 0 0 0 0 0 0 0 0 0 0 0 0 0 0 0 0 0 0 0 0 0 0 0 0 0 0 0 0 0
0 0 0 0 0 0 0 0 0 0 0 0 0 0 0 0 0 0 0 0 0 0 0 0 0 0 0 0 0 0 0 0 0 0 0 0 0 0 0 0 0 0 0 0 0 0 0 0 0 0 0 0 0 0
0 0 0 0 0 0 0 0 0 0 0 0 0 0 0 0 0 0 0 0 0 0 0 0 0 0 0 0 0 0 0 0 0 0 0 0 0 0 0 0 0 0 0 0 0 0 0 0 0 0 0 0 0 0
0 0 0 0 0 0 0 0 0 0 0 0 0 0 0 0 0 0 0 0 0 0 0 0 0 0 0 0 0 0 0 0 0 0 0 0 0 0 0 0 0 0 0 0 0 0 0 0 0 0 0 0 0 0
0 0 0 0 0 0 0 0 0 0 0 0 0 0 0 0 0 0 0 0 0 0 0 0 0 0 0 0 0 0 0 0 0 0 0 0 0 0 0 0 0 0 0 0 0 0 0 0 0 0 0 0 0 0
0 0 0 0 0 0 0 0 0 0 0 0 0 0 0 0 0 0 0 0 0 0 0 0 0 0 0 0 0 0 0 0 0 0 0 0 0 0 0 0 0 0 0 0 0 0 0 0 0 0 0 0 0 0
0 0 0 0 0 0 0 0 0 0 0 0 0 0 0 0 0 0 0 0 0 0 0 0 0 0 0 0 0 0 0 0 0 0 0 0 0 0 0 0 0 0 0 0 0 0 0 0 0 0 0 0 0 0
0 0 0 0 0 0 0 0 0 0 0 0 0 0 0 0 0 0 0 0 0 0 0 0 0 0 0 0 0 0 0 0 0 0 0 0 0 0 0 0 0 0 0 0 0 0 0 0 0 0 0 0 0 0
Wind_Speed_500mb
48 53 55 54 56 59 60 57 47 38 37 35 32 42 52 39 21 32 30 45 20 7 9 8 6 18 15 27 12 14 15 2 3 12 10 8 8 14 9 15 18 20 17 11 14 19 26 20 30 27 8 3 29 48
45 49 53 54 57 57 56 52 41 33 32 30 27 27 37 43 18 19 20 19 39 13 3 20 20 16 21 30 24 38 6 9 13 7 6 6 6 7 11 13 9 14 13 15 18 13 4 35 7 25 15 14 20 48
45 47 48 52 55 55 52 44 37 33 30 26 23 21 28 36 33 20 30 28 36 24 27 22 19 21 11 12 34 14 9 19 15 9 6 4 6 7 10 10 8 8 7 8 7 8 6 19 18 21 20 21 27 39
43 46 46 50 54 49 49 43 35 29 28 26 22 17 18 23 30 26 35 17 12 7 7 11 36 40 26 3 13 10 25 22 32 17 4 4 5 5 6 3 4 7 16 12 3 2 4 12 33 26 25 26 36 44
39 44 43 47 50 45 44 42 33 26 25 26 22 19 10 11 15 22 30 39 24 6 5 8 26 38 34 31 22 11 24 30 13 6 4 3 4 5 2 2 4 6 9 9 9 16 9 12 45 42 43 51 56 63
37 40 39 44 44 41 38 36 34 30 27 24 25 26 20 8 8 7 5 32 34 23 7 6 11 26 31 37 34 27 17 15 10 7 4 5 4 2 5 6 8 18 17 26 9 24 32 22 47 51 53 52 53 50
32 34 32 36 40 37 33 33 31 31 28 24 22 28 32 35 20 22 13 26 27 17 9 6 6 12 16 12 15 19 22 16 12 6 4 3 5 5 2 5 5 5 14 19 20 36 19 49 46 50 48 49 50 48
25 28 22 29 31 30 26 26 27 26 22 18 17 17 22 24 29 31 26 22 19 14 13 5 4 6 15 11 6 13 7 7 11 5 3 3 3 2 5 8 1 10 17 26 20 15 40 43 36 39 38 47 49 48
18 22 16 18 23 22 14 19 24 25 18 18 15 11 10 13 13 22 16 21 28 16 6 5 5 4 8 7 6 4 8 6 4 3 3 3 1 5 8 5 8 6 4 9 13 17 16 20 34 46 51 53 54 51
18 21 19 13 16 19 16 18 29 30 19 19 16 6 10 13 18 12 6 5 9 14 13 5 4 2 5 9 4 4 9 3 5 4 5 3 6 20 25 21 19 21 17 14 15 12 19 23 35 50 57 59 54 46
21 22 21 15 12 17 21 20 25 33 19 17 16 11 13 19 11 9 8 9 7 6 5 3 2 3 2 4 1 5 2 2 6 7 4 4 6 8 23 34 43 47 40 32 27 23 23 33 38 41 46 49 49 48
11 19 20 15 11 14 20 24 21 24 19 13 12 11 14 12 10 10 4 4 6 3 3 3 1 3 7 4 6 0 4 2 2 1 5 5 7 19 15 19 19 24 27 37 43 40 33 29 29 35 43 49 51 51
14 14 19 16 14 14 17 22 21 17 20 9 7 6 9 9 12 6 4 5 6 4 3 3 3 2 4 4 5 4 7 5 4 5 5 8 11 28 23 18 16 13 20 23 29 42 46 37 31 32 34 42 46 45
15 18 16 15 12 17 21 21 17 12 5 2 4 7 5 5 4 5 4 3 5 3 9 4 1 3 2 5 2 6 5 4 5 2 9 6 25 23 20 18 13 10 13 21 29 33 39 43 36 27 32 38 45 47
21 22 18 13 12 17 20 18 12 7 4 2 3 5 7 4 4 1 2 6 9 6 6 2 4 2 2 5 2 4 7 5 8 8 7 12 16 17 21 20 12 16 18 18 16 25 36 39 40 39 37 38 37 36
21 24 18 16 17 20 23 18 10 6 4 3 4 5 4 4 7 2 5 8 12 11 3 4 2 2 4 3 5 9 6 9 8 6 26 25 23 19 16 16 15 14 16 14 12 14 18 28 31 30 32 34 35 35
21 16 10 13 16 21 18 9 3 3 4 6 7 13 9 9 12 7 6 4 3 3 3 5 2 8 2 3 6 7 9 7 11 23 35 37 31 23 21 22 20 15 13 15 15 22 27 29 29 28 31 34 34 31
32 20 13 18 22 16 7 7 4 6 10 17 6 13 14 14 11 9 5 2 6 9 12 7 4 3 7 7 7 4 11 30 27 31 35 32 28 29 28 24 21 19 17 19 22 24 29 30 28 26 23 27 30 31
28 20 19 16 15 5 4 7 9 6 17 9 13 17 13 11 15 11 9 7 9 11 6 3 5 5 3 5 8 20 25 22 25 43 45 38 29 35 46 37 25 23 23 24 27 31 32 32 31 26 26 29 31 30
27 24 20 18 17 7 6 8 11 9 6 12 14 15 10 11 12 12 7 8 13 9 4 6 4 3 2 9 14 16 23 30 31 31 41 44 40 39 42 40 41 34 31 28 28 29 29 29 31 33 33 31 34 31
27 28 20 26 25 19 9 10 12 12 8 12 13 18 9 12 12 11 6 12 10 8 5 9 10 6 3 3 9 16 19 23 20 22 30 43 46 40 47 43 31 39 41 42 39 36 36 36 33 36 37 38 37 31
28 23 24 30 19 12 16 19 12 5 8 7 11 15 6 2 7 11 13 7 7 8 11 15 12 15 11 2 12 18 20 21 20 20 27 32 36 39 38 36 32 27 41 51 54 50 43 35 29 31 38 39 37 37
28 27 20 20 18 18 11 19 14 12 8 6 13 7 3 4 14 17 3 8 9 15 19 17 16 10 4 3 8 11 14 17 21 24 27 31 31 33 37 34 30 32 34 28 34 43 48 44 45 40 35 36 44 44
34 19 16 15 25 8 10 11 13 7 6 5 6 5 5 6 13 3 5 6 14 27 25 20 18 13 7 3 8 13 18 22 25 26 27 30 32 31 31 34 33 29 27 33 31 36 36 36 37 44 51 50 47 51
14 18 14 11 17 11 10 6 8 8 7 7 6 2 5 8 4 5 6 6 35 38 31 25 20 16 9 1 10 16 17 22 29 36 36 35 34 35 32 31 31 28 26 32 33 32 33 40 42 41 44 55 59 59
14 26 22 15 6 9 10 8 10 9 6 5 6 3 4 5 4 9 6 19 40 45 39 33 23 12 7 13 21 26 29 30 33 42 46 40 38 36 33 35 40 39 32 36 38 40 43 35 36 43 50 52 53 61
12 12 12 15 10 10 6 5 8 5 7 10 6 6 5 7 12 8 12 30 38 43 36 23 14 16 24 25 27 32 34 37 42 47 45 38 36 30 26 32 38 42 42 38 39 40 48 44 39 45 56 57 56 60
7 9 12 17 8 7 8 5 9 12 8 10 13 7 12 14 9 7 12 31 35 31 17 11 17 21 26 32 35 30 33 40 36 30 28 26 19 24 30 30 33 35 38 36 37 38 42 44 40 40 53 62 60 58
6 13 16 6 5 5 8 9 10 15 16 21 9 7 7 7 11 15 20 32 22 13 18 22 25 25 27 27 25 27 31 21 21 26 25 26 26 21 27 29 31 32 33 34 26 27 33 39 32 22 41 52 54 53
6 19 8 5 9 11 9 17 8 11 19 14 9 7 6 7 17 24 18 15 21 25 21 21 24 24 20 18 20 20 16 17 23 27 29 31 34 34 34 33 31 28 30 33 30 26 20 23 24 15 9 28 37 42
16 12 6 6 5 4 9 16 12 13 13 14 14 10 8 6 14 24 31 30 23 23 24 24 19 15 13 12 13 14 16 20 21 25 26 26 26 26 27 26 24 23 25 29 27 22 15 8 1 10 19 31 40 48
9 7 6 6 2 7 15 6 6 4 1 3 5 7 4 7 8 8 10 13 16 17 17 16 12 9 10 12 13 15 17 17 16 15 14 15 16 20 20 19 17 18 20 20 20 22 19 6 6 12 20 25 30 33
6 6 6 6 3 3 6 6 9 8 4 3 2 3 8 9 9 7 7 13 14 13 12 10 8 7 7 8 11 10 6 6 8 8 10 13 17 18 16 14 15 16 16 15 17 21 26 28 30 30 32 33 35 37
Wind_Direction_500mb
331 337 342 347 351 353 352 349 353 358 5 15 20 21 16 23 134 204 216 219 210 97 68 214 169 141 130 172 158 161 127 141 81 169 180 168 176 199 177 177 174 171 173 195 204 207 243 160 153 182 196 135 195 193
337 338 345 348 352 356 355 350 352 1 4 14 20 30 26 22 47 145 127 163 200 154 84 103 95 147 181 183 158 168 141 150 166 148 174 141 171 172 176 223 179 206 197 173 199 215 194 185 188 194 169 165 178 192
345 342 347 347 350 354 358 356 354 356 3 12 25 38 38 45 39 95 97 84 107 105 63 67 18 68 154 175 191 144 170 165 168 116 129 149 175 139 178 233 116 216 161 164 126 225 217 213 223 201 196 199 188 196
346 346 349 349 350 355 358 358 358 357 2 15 30 50 56 48 48 45 53 52 80 123 114 58 63 55 47 140 197 146 169 152 148 140 119 154 154 163 195 255 147 202 147 155 303 39 64 259 226 214 192 190 182 182
348 347 351 352 353 1 2 9 13 19 21 22 34 38 68 68 55 55 55 51 49 61 133 84 54 33 39 61 95 144 164 142 113 117 127 149 123 120 67 57 229 215 168 164 217 190 174 216 212 206 184 170 168 163
348 349 355 1 4 5 9 21 31 44 45 50 44 36 25 4 5 15 55 42 46 45 83 67 73 57 76 53 47 61 104 95 81 77 84 79 98 191 160 209 256 213 216 216 199 200 207 220 183 179 171 167 168 168
348 351 3 14 11 8 18 32 39 49 54 53 56 51 47 43 55 64 57 9 26 41 57 45 30 35 43 54 47 50 57 59 58 52 51 74 32 29 85 225 284 232 223 216 201 163 141 166 169 172 171 174 177 177
343 351 3 12 12 12 19 38 44 44 48 45 48 49 58 57 58 52 52 47 33 50 61 78 346 34 25 26 23 21 40 61 43 89 78 75 52 53 256 267 230 119 117 138 133 161 165 161 164 173 180 179 177 180
326 348 346 357 0 6 15 17 15 14 17 18 13 35 60 38 37 17 43 53 46 52 99 60 97 240 15 53 13 39 27 46 351 83 63 96 130 234 233 237 206 174 147 149 131 118 148 171 190 195 194 187 190 196
331 342 333 313 344 352 349 348 358 354 347 352 8 35 53 13 354 5 56 47 38 26 31 57 49 24 41 26 357 40 20 50 55 322 336 106 250 251 246 240 246 247 255 227 183 185 199 206 206 194 196 201 205 207
347 329 326 320 294 313 330 331 356 6 11 22 28 24 360 352 10 35 42 55 345 47 60 111 175 140 43 92 170 16 181 14 46 285 93 299 281 255 270 262 256 254 255 250 249 241 229 227 216 209 212 218 217 213
323 322 323 323 307 295 312 323 321 3 13 8 358 0 354 16 27 64 357 335 44 57 359 113 184 127 140 149 113 166 112 55 184 166 67 289 254 275 312 321 293 271 262 245 237 238 237 236 229 224 225 223 221 223
297 308 315 304 303 307 298 305 315 319 336 3 12 1 1 345 35 77 4 343 10 346 352 45 6 146 126 95 68 88 73 218 103 51 228 231 260 285 307 315 315 272 251 253 249 242 238 232 217 213 213 219 219 214
291 299 300 300 302 315 317 309 307 312 298 307 37 321 134 324 268 192 169 200 332 334 339 306 43 92 81 59 130 89 250 81 13 270 240 249 269 303 321 321 282 283 248 247 251 245 234 229 221 232 222 217 209 206
289 289 284 274 295 319 326 321 313 260 265 220 155 234 219 256 268 27 17 7 22 340 312 39 12 61 308 86 171 103 30 274 213 233 236 251 308 307 323 333 303 269 282 288 267 239 234 231 230 219 202 198 201 206
280 291 278 255 270 307 316 309 317 230 246 165 219 214 215 36 324 121 83 48 39 22 61 60 65 283 214 148 144 206 191 228 247 230 262 297 283 284 300 313 309 293 288 277 257 229 206 199 190 187 186 195 204 213
265 269 268 256 284 307 307 286 237 255 236 223 221 213 231 231 214 210 181 192 317 352 174 110 108 227 30 218 206 186 207 221 240 279 300 300 278 269 284 287 286 277 263 239 209 188 181 179 183 196 209 214 217 219
254 261 258 267 288 307 287 220 197 232 245 224 210 192 197 209 207 234 216 126 161 176 151 206 164 137 207 197 254 295 345 343 353 350 336 304 280 277 273 268 264 255 240 223 219 211 199 205 215 223 221 213 209 206
265 267 244 264 294 283 236 219 210 247 235 237 232 221 230 226 219 225 236 225 200 190 183 189 210 209 260 28 355 334 334 334 323 322 325 325 320 298 294 279 252 243 236 225 217 218 224 233 239 225 217 218 215 209
250 247 240 245 254 242 242 224 212 240 237 224 208 192 198 188 201 199 250 228 198 185 148 191 166 88 7 26 20 358 349 340 340 324 320 313 313 311 323 296 272 255 240 233 231 226 226 229 222 219 222 225 218 219
239 234 234 221 224 225 247 228 229 226 233 220 218 194 202 203 199 209 213 178 196 200 166 157 150 114 137 311 10 14 10 3 4 1 347 329 319 310 302 302 298 266 252 240 232 229 230 236 239 232 229 230 225 224
234 223 214 204 212 220 245 226 223 218 209 239 182 195 175 151 198 186 168 173 199 189 175 159 150 152 174 329 360 2 4 0 358 346 339 341 348 347 334 318 308 295 264 251 245 241 239 242 241 237 237 238 233 231
209 209 209 190 208 213 245 200 192 209 195 216 158 173 206 188 180 156 124 183 191 188 177 169 162 169 158 31 356 355 1 1 360 357 352 350 351 350 346 342 333 317 294 267 256 253 253 254 253 246 243 243 234 233
224 191 190 207 204 233 185 203 205 208 168 171 170 200 194 178 157 122 210 218 193 178 180 186 189 185 171 119 46 16 358 349 340 337 340 333 332 332 337 343 346 341 330 317 283 255 246 248 248 250 241 241 240 234
212 199 205 210 199 192 189 202 183 180 202 185 153 221 210 163 135 185 222 233 181 183 181 185 181 166 154 33 334 332 326 321 325 322 322 325 319 318 318 322 330 338 337 336 334 317 282 254 247 252 250 240 238 234
209 202 191 190 202 186 186 174 190 174 148 151 197 114 121 109 135 232 226 195 186 184 184 180 180 188 258 313 314 313 310 311 314 315 313 313 308 308 306 317 323 326 332 331 326 324 314 299 256 255 254 247 246 241
206 198 185 186 173 144 102 101 124 117 170 192 187 166 125 176 229 243 198 178 183 185 181 189 225 282 303 308 301 299 302 306 311 310 308 302 294 282 295 314 317 316 316 314 314 310 313 316 298 251 250 250 244 245
174 156 161 167 141 155 142 141 163 194 198 183 135 181 190 201 229 186 177 181 181 177 196 251 281 275 277 284 296 299 300 307 310 313 313 308 276 282 297 300 307 310 308 306 306 306 313 315 301 268 246 245 247 244
147 160 136 113 117 164 190 185 203 206 178 168 167 212 232 221 178 171 163 168 183 223 258 267 255 257 272 281 289 298 305 303 315 324 327 329 326 320 319 320 323 324 321 320 312 307 311 318 323 280 250 241 241 241
189 166 105 155 177 203 215 201 191 170 180 188 183 158 169 179 179 178 189 244 264 267 267 250 250 256 264 275 289 289 276 283 301 310 314 316 317 320 323 326 331 335 334 334 335 333 317 325 333 349 277 235 228 219
144 140 109 166 208 188 182 185 168 171 182 197 212 223 214 207 217 245 260 254 248 242 235 242 240 248 263 271 276 272 272 282 290 301 308 315 323 328 331 334 339 344 346 342 340 340 338 309 100 162 168 171 174 172
148 142 143 148 154 113 129 142 144 173 217 201 219 220 201 198 224 235 226 216 214 213 216 225 236 241 262 272 271 275 286 294 302 312 324 336 345 347 352 359 2 7 5 2 9 25 31 36 159 149 149 150 156 164
87 89 95 101 88 88 56 95 40 355 358 332 258 209 202 210 221 211 187 190 187 180 193 211 238 252 242 248 264 280 295 313 326 333 347 354 356 358 358 359 2 8 14 27 45 59 73 84 92 101 111 120 125 129
Wind_Speed_850mb
48 53 55 54 56 59 60 57 47 38 37 35 32 42 52 39 21 32 30 45 20 7 9 8 6 18 15 27 12 14 15 2 3 12 10 8 8 14 9 15 18 20 17 11 14 19 26 20 30 27 8 3 29 48
45 49 53 54 57 57 56 52 41 33 32 30 27 27 37 43 18 19 20 19 39 13 3 20 20 16 21 30 24 38 6 9 13 7 6 6 6 7 11 13 9 14 13 15 18 13 4 35 7 25 15 14 20 48
45 47 48 52 55 55 52 44 37 33 30 26 23 21 28 36 33 20 30 28 36 24 27 22 19 21 11 12 34 14 9 19 15 9 6 4 6 7 10 10 8 8 7 8 7 8 6 19 18 21 20 21 27 39
43 46 46 50 54 49 49 43 35 29 28 26 22 17 18 23 30 26 35 17 12 7 7 11 36 40 26 3 13 10 25 22 32 17 4 4 5 5 6 3 4 7 16 12 3 2 4 12 33 26 25 26 36 44
39 44 43 47 50 45 44 42 33 26 25 26 22 19 10 11 15 22 30 39 24 6 5 8 26 38 34 31 22 11 24 30 13 6 4 3 4 5 2 2 4 6 9 9 9 16 9 12 45 42 43 51 56 63
37 40 39 44 44 41 38 36 34 30 27 24 25 26 20 8 8 7 5 32 34 23 7 6 11 26 31 37 34 27 17 15 10 7 4 5 4 2 5 6 8 18 17 26 9 24 32 22 47 51 53 52 53 50
32 34 32 36 40 37 33 33 31 31 28 24 22 28 32 35 20 22 13 26 27 17 9 6 6 12 16 12 15 19 22 16 12 6 4 3 5 5 2 5 5 5 14 19 20 36 19 49 46 50 48 49 50 48
25 28 22 29 31 30 26 26 27 26 22 18 17 17 22 24 29 31 26 22 19 14 13 5 4 6 15 11 6 13 7 7 11 5 3 3 3 2 5 8 1 10 17 26 20 15 40 43 36 39 38 47 49 48
18 22 16 18 23 22 14 19 24 25 18 18 15 11 10 13 13 22 16 21 28 16 6 5 5 4 8 7 6 4 8 6 4 3 3 3 1 5 8 5 8 6 4 9 13 17 16 20 34 46 51 53 54 51
18 21 19 13 16 19 16 18 29 30 19 19 16 6 10 13 18 12 6 5 9 14 13 5 4 2 5 9 4 4 9 3 5 4 5 3 6 20 25 21 19 21 17 14 15 12 19 23 35 50 57 59 54 46
21 22 21 15 12 17 21 20 25 33 19 17 16 11 13 19 11 9 8 9 7 6 5 3 2 3 2 4 1 5 2 2 6 7 4 4 6 8 23 34 43 47 40 32 27 23 23 33 38 41 46 49 49 48
11 19 20 15 11 14 20 24 21 24 19 13 12 11 14 12 10 10 4 4 6 3 3 3 1 3 7 4 6 0 4 2 2 1 5 5 7 19 15 19 19 24 27 37 43 40 33 29 29 35 43 49 51 51
14 14 19 16 14 14 17 22 21 17 20 9 7 6 9 9 12 6 4 5 6 4 3 3 3 2 4 4 5 4 7 5 4 5 5 8 11 28 23 18 16 13 20 23 29 42 46 37 31 32 34 42 46 45
15 18 16 15 12 17 21 21 17 12 5 2 4 7 5 5 4 5 4 3 5 3 9 4 1 3 2 5 2 6 5 4 5 2 9 6 25 23 20 18 13 10 13 21 29 33 39 43 36 27 32 38 45 47
21 22 18 13 12 17 20 18 12 7 4 2 3 5 7 4 4 1 2 6 9 6 6 2 4 2 2 5 2 4 7 5 8 8 7 12 16 17 21 20 12 16 18 18 16 25 36 39 40 39 37 38 37 36
21 24 18 16 17 20 23 18 10 6 4 3 4 5 4 4 7 2 5 8 12 11 3 4 2 2 4 3 5 9 6 9 8 6 26 25 23 19 16 16 15 14 16 14 12 14 18 28 31 30 32 34 35 35
21 16 10 13 16 21 18 9 3 3 4 6 7 13 9 9 12 7 6 4 3 3 3 5 2 8 2 3 6 7 9 7 11 23 35 37 31 23 21 22 20 15 13 15 15 22 27 29 29 28 31 34 34 31
32 20 13 18 22 16 7 7 4 6 10 17 6 13 14 14 11 9 5 2 6 9 12 7 4 3 7 7 7 4 11 30 27 31 35 32 28 29 28 24 21 19 17 19 22 24 29 30 28 26 23 27 30 31
28 20 19 16 15 5 4 7 9 6 17 9 13 17 13 11 15 11 9 7 9 11 6 3 5 5 3 5 8 20 25 22 25 43 45 38 29 35 46 37 25 23 23 24 27 31 32 32 31 26 26 29 31 30
27 24 20 18 17 7 6 8 11 9 6 12 14 15 10 11 12 12 7 8 13 9 4 6 4 3 2 9 14 16 23 30 31 31 41 44 40 39 42 40 41 34 31 28 28 29 29 29 31 33 33 31 34 31
27 28 20 26 25 19 9 10 12 12 8 12 13 18 9 12 12 11 6 12 10 8 5 9 10 6 3 3 9 16 19 23 20 22 30 43 46 40 47 43 31 39 41 42 39 36 36 36 33 36 37 38 37 31
28 23 24 30 19 12 16 19 12 5 8 7 11 15 6 2 7 11 13 7 7 8 11 15 12 15 11 2 12 18 20 21 20 20 27 32 36 39 38 36 32 27 41 51 54 50 43 35 29 31 38 39 37 37
28 27 20 20 18 18 11 19 14 12 8 6 13 7 3 4 14 17 3 8 9 15 19 17 16 10 4 3 8 11 14 17 21 24 27 31 31 33 37 34 30 32 34 28 34 43 48 44 45 40 35 36 44 44
34 19 16 15 25 8 10 11 13 7 6 5 6 5 5 6 13 3 5 6 14 27 25 20 18 13 7 3 8 13 18 22 25 26 27 30 32 31 31 34 33 29 27 33 31 36 36 36 37 44 51 50 47 51
14 18 14 11 17 11 10 6 8 8 7 7 6 2 5 8 4 5 6 6 35 38 31 25 20 16 9 1 10 16 17 22 29 36 36 35 34 35 32 31 31 28 26 32 33 32 33 40 42 41 44 55 59 59
14 26 22 15 6 9 10 8 10 9 6 5 6 3 4 5 4 9 6 19 40 45 39 33 23 12 7 13 21 26 29 30 33 42 46 40 38 36 33 35 40 39 32 36 38 40 43 35 36 43 50 52 53 61
12 12 12 15 10 10 6 5 8 5 7 10 6 6 5 7 12 8 12 30 38 43 36 23 14 16 24 25 27 32 34 37 42 47 45 38 36 30 26 32 38 42 42 38 39 40 48 44 39 45 56 57 56 60
7 9 12 17 8 7 8 5 9 12 8 10 13 7 12 14 9 7 12 31 35 31 17 11 17 21 26 32 35 30 33 40 36 30 28 26 19 24 30 30 33 35 38 36 37 38 42 44 40 40 53 62 60 58
6 13 16 6 5 5 8 9 10 15 16 21 9 7 7 7 11 15 20 32 22 13 18 22 25 25 27 27 25 27 31 21 21 26 25 26 26 21 27 29 31 32 33 34 26 27 33 39 32 22 41 52 54 53
6 19 8 5 9 11 9 17 8 11 19 14 9 7 6 7 17 24 18 15 21 25 21 21 24 24 20 18 20 20 16 17 23 27 29 31 34 34 34 33 31 28 30 33 30 26 20 23 24 15 9 28 37 42
16 12 6 6 5 4 9 16 12 13 13 14 14 10 8 6 14 24 31 30 23 23 24 24 19 15 13 12 13 14 16 20 21 25 26 26 26 26 27 26 24 23 25 29 27 22 15 8 1 10 19 31 40 48
9 7 6 6 2 7 15 6 6 4 1 3 5 7 4 7 8 8 10 13 16 17 17 16 12 9 10 12 13 15 17 17 16 15 14 15 16 20 20 19 17 18 20 20 20 22 19 6 6 12 20 25 30 33
6 6 6 6 3 3 6 6 9 8 4 3 2 3 8 9 9 7 7 13 14 13 12 10 8 7 7 8 11 10 6 6 8 8 10 13 17 18 16 14 15 16 16 15 17 21 26 28 30 30 32 33 35 37
Wind_Direction_850mb
331 337 342 347 351 353 352 349 353 358 5 15 20 21 16 23 134 204 216 219 210 97 68 214 169 141 130 172 158 161 127 141 81 169 180 168 176 199 177 177 174 171 173 195 204 207 243 160 153 182 196 135 195 193
337 338 345 348 352 356 355 350 352 1 4 14 20 30 26 22 47 145 127 163 200 154 84 103 95 147 181 183 158 168 141 150 166 148 174 141 171 172 176 223 179 206 197 173 199 215 194 185 188 194 169 165 178 192
345 342 347 347 350 354 358 356 354 356 3 12 25 38 38 45 39 95 97 84 107 105 63 67 18 68 154 175 191 144 170 165 168 116 129 149 175 139 178 233 116 216 161 164 126 225 217 213 223 201 196 199 188 196
346 346 349 349 350 355 358 358 358 357 2 15 30 50 56 48 48 45 53 52 80 123 114 58 63 55 47 140 197 146 169 152 148 140 119 154 154 163 195 255 147 202 147 155 303 39 64 259 226 214 192 190 182 182
348 347 351 352 353 1 2 9 13 19 21 22 34 38 68 68 55 55 55 51 49 61 133 84 54 33 39 61 95 144 164 142 113 117 127 149 123 120 67 57 229 215 168 164 217 190 174 216 212 206 184 170 168 163
348 349 355 1 4 5 9 21 31 44 45 50 44 36 25 4 5 15 55 42 46 45 83 67 73 57 76 53 47 61 104 95 81 77 84 79 98 191 160 209 256 213 216 216 199 200 207 220 183 179 171 167 168 168
348 351 3 14 11 8 18 32 39 49 54 53 56 51 47 43 55 64 57 9 26 41 57 45 30 35 43 54 47 50 57 59 58 52 51 74 32 29 85 225 284 232 223 216 201 163 141 166 169 172 171 174 177 177
343 351 3 12 12 12 19 38 44 44 48 45 48 49 58 57 58 52 52 47 33 50 61 78 346 34 25 26 23 21 40 61 43 89 78 75 52 53 256 267 230 119 117 138 133 161 165 161 164 173 180 179 177 180
326 348 346 357 0 6 15 17 15 14 17 18 13 35 60 38 37 17 43 53 46 52 99 60 97 240 15 53 13 39 27 46 351 83 63 96 130 234 233 237 206 174 147 149 131 118 148 171 190 195 194 187 190 196
331 342 333 313 344 352 349 348 358 354 347 352 8 35 53 13 354 5 56 47 38 26 31 57 49 24 41 26 357 40 20 50 55 322 336 106 250 251 246 240 246 247 255 227 183 185 199 206 206 194 196 201 205 207
347 329 326 320 294 313 330 331 356 6 11 22 28 24 360 352 10 35 42 55 345 47 60 111 175 140 43 92 170 16 181 14 46 285 93 299 281 255 270 262 256 254 255 250 249 241 229 227 216 209 212 218 217 213
323 322 323 323 307 295 312 323 321 3 13 8 358 0 354 16 27 64 357 335 44 57 359 113 184 127 140 149 113 166 112 55 184 166 67 289 254 275 312 321 293 271 262 245 237 238 237 236 229 224 225 223 221 223
297 308 315 304 303 307 298 305 315 319 336 3 12 1 1 345 35 77 4 343 10 346 352 45 6 146 126 95 68 88 73 218 103 51 228 231 260 285 307 315 315 272 251 253 249 242 238 232 217 213 213 219 219 214
291 299 300 300 302 315 317 309 307 312 298 307 37 321 134 324 268 192 169 200 332 334 339 306 43 92 81 59 130 89 250 81 13 270 240 249 269 303 321 321 282 283 248 247 251 245 234 229 221 232 222 217 209 206
289 289 284 274 295 319 326 321 313 260 265 220 155 234 219 256 268 27 17 7 22 340 312 39 12 61 308 86 171 103 30 274 213 233 236 251 308 307 323 333 303 269 282 288 267 239 234 231 230 219 202 198 201 206
280 291 278 255 270 307 316 309 317 230 246 165 219 214 215 36 324 121 83 48 39 22 61 60 65 283 214 148 144 206 191 228 247 230 262 297 283 284 300 313 309 293 288 277 257 229 206 199 190 187 186 195 204 213
265 269 268 256 284 307 307 286 237 255 236 223 221 213 231 231 214 210 181 192 317 352 174 110 108 227 30 218 206 186 207 221 240 279 300 300 278 269 284 287 286 277 263 239 209 188 181 179 183 196 209 214 217 219
254 261 258 267 288 307 287 220 197 232 245 224 210 192 197 209 207 234 216 126 161 176 151 206 164 137 207 197 254 295 345 343 353 350 336 304 280 277 273 268 264 255 240 223 219 211 199 205 215 223 221 213 209 206
265 267 244 264 294 283 236 219 210 247 235 237 232 221 230 226 219 225 236 225 200 190 183 189 210 209 260 28 355 334 334 334 323 322 325 325 320 298 294 279 252 243 236 225 217 218 224 233 239 225 217 218 215 209
250 247 240 245 254 242 242 224 212 240 237 224 208 192 198 188 201 199 250 228 198 185 148 191 166 88 7 26 20 358 349 340 340 324 320 313 313 311 323 296 272 255 240 233 231 226 226 229 222 219 222 225 218 219
239 234 234 221 224 225 247 228 229 226 233 220 218 194 202 203 199 209 213 178 196 200 166 157 150 114 137 311 10 14 10 3 4 1 347 329 319 310 302 302 298 266 252 240 232 229 230 236 239 232 229 230 225 224
234 223 214 204 212 220 245 226 223 218 209 239 182 195 175 151 198 186 168 173 199 189 175 159 150 152 174 329 360 2 4 0 358 346 339 341 348 347 334 318 308 295 264 251 245 241 239 242 241 237 237 238 233 231
209 209 209 190 208 213 245 200 192 209 195 216 158 173 206 188 180 156 124 183 191 188 177 169 162 169 158 31 356 355 1 1 360 357 352 350 351 350 346 342 333 317 294 267 256 253 253 254 253 246 243 243 234 233
224 191 190 207 204 233 185 203 205 208 168 171 170 200 194 178 157 122 210 218 193 178 180 186 189 185 171 119 46 16 358 349 340 337 340 333 332 332 337 343 346 341 330 317 283 255 246 248 248 250 241 241 240 234
212 199 205 210 199 192 189 202 183 180 202 185 153 221 210 163 135 185 222 233 181 183 181 185 181 166 154 33 334 332 326 321 325 322 322 325 319 318 318 322 330 338 337 336 334 317 282 254 247 252 250 240 238 234
209 202 191 190 202 186 186 174 190 174 148 151 197 114 121 109 135 232 226 195 186 184 184 180 180 188 258 313 314 313 310 311 314 315 313 313 308 308 306 317 323 326 332 331 326 324 314 299 256 255 254 247 246 241
206 198 185 186 173 144 102 101 124 117 170 192 187 166 125 176 229 243 198 178 183 185 181 189 225 282 303 308 301 299 302 306 311 310 308 302 294 282 295 314 317 316 316 314 314 310 313 316 298 251 250 250 244 245
174 156 161 167 141 155 142 141 163 194 198 183 135 181 190 201 229 186 177 181 181 177 196 251 281 275 277 284 296 299 300 307 310 313 313 308 276 282 297 300 307 310 308 306 306 306 313 315 301 268 246 245 247 244
147 160 136 113 117 164 190 185 203 206 178 168 167 212 232 221 178 171 163 168 183 223 258 267 255 257 272 281 289 298 305 303 315 324 327 329 326 320 319 320 323 324 321 320 312 307 311 318 323 280 250 241 241 241
189 166 105 155 177 203 215 201 191 170 180 188 183 158 169 179 179 178 189 244 264 267 267 250 250 256 264 275 289 289 276 283 301 310 314 316 317 320 323 326 331 335 334 334 335 333 317 325 333 349 277 235 228 219
144 140 109 166 208 188 182 185 168 171 182 197 212 223 214 207 217 245 260 254 248 242 235 242 240 248 263 271 276 272 272 282 290 301 308 315 323 328 331 334 339 344 346 342 340 340 338 309 100 162 168 171 174 172
148 142 143 148 154 113 129 142 144 173 217 201 219 220 201 198 224 235 226 216 214 213 216 225 236 241 262 272 271 275 286 294 302 312 324 336 345 347 352 359 2 7 5 2 9 25 31 36 159 149 149 150 156 164
87 89 95 101 88 88 56 95 40 355 358 332 258 209 202 210 221 211 187 190 187 180 193 211 238 252 242 248 264 280 295 313 326 333 347 354 356 358 358 359 2 8 14 27 45 59 73 84 92 101 111 120 125 129